Woodward, OK

6:57 PM CDT on April 23, 2017 (GMT -0500)
West Woodward

Weather History for KWWR - November, 2013

Change the Weather History Date:

Monday, November 11, 2013

  Actual Average (KGAG) Record (KGAG)
Temperature  
Mean Temperature 50 °F -  
Max Temperature 66 °F 60 °F 85 °F (1989)
Min Temperature 33 °F 33 °F 13 °F (1986)
Degree Days  
Heating Degree Days 16    
Moisture  
Dew Point 46 °F    
Average Humidity 82    
Maximum Humidity 94    
Minimum Humidity 52    
Precipitation  
Precipitation 0.00 in - - ()
Sea Level Pressure  
Sea Level Pressure 30.31 in    
Wind  
Wind Speed 9 mph (WNW)    
Max Wind Speed 23 mph    
Max Gust Speed 34 mph    
Visibility 9 miles    
Events Rain    
Averages and records for this station are not official NWS values.
T = Trace of Precipitation, MM = Missing Value Source: NWS Daily Summary

Daily Weather History Graph

Daily Weather History Graph

Search for Another Location

Airport or City:

Trip Planner

Search our weather history database for the weather conditions in past years. The results will help you decide how hot, cold, wet, or windy it might be!

Date:

Astronomy

Nov. 11, 2013 Rise Set
Actual Time 7:11 AM CST 5:32 PM CST
Civil Twilight 6:44 AM CST 5:59 PM CST
Nautical Twilight 6:13 AM CST 6:30 PM CST
Astronomical Twilight 5:43 AM CST 7:00 PM CST
Moon 2:04 PM CST (11/11) 1:08 AM CST (11/11)
Length of Visible Light 11h 15m
Length of Day
10h 20m
Waxing Gibbous, 66% of the Moon is Illuminated
Nov 11
Waxing Gibbous
Nov 17
Full
Nov 25
Last Quarter
Dec 2
New
Dec 9
First Quarter

Hourly Weather History & Observations

Time (CST) Temp. Windchill Dew Point Humidity Pressure Visibility Wind Dir Wind Speed Gust Speed Precip Events Conditions
12:15 AM 55.4 °F - 51.8 °F 88% 30.24 in 10.0 mi SSW 4.6 mph - N/A   Overcast
12:35 AM 55.4 °F - 51.8 °F 88% 30.25 in 10.0 mi SSW 6.9 mph - N/A   Overcast
12:55 AM 55.4 °F - 50.0 °F 82% 30.24 in 10.0 mi SSW 8.1 mph - N/A   Overcast
1:15 AM 55.4 °F - 50.0 °F 82% 30.24 in 10.0 mi SW 6.9 mph - N/A   Overcast
1:35 AM 55.4 °F - 50.0 °F 82% 30.24 in 10.0 mi SW 6.9 mph - N/A   Overcast
1:55 AM 55.4 °F - 50.0 °F 82% 30.23 in 10.0 mi SW 5.8 mph - N/A   Overcast
2:15 AM 53.6 °F - 50.0 °F 88% 30.23 in 10.0 mi SW 3.5 mph - N/A   Overcast
2:35 AM 53.6 °F - 50.0 °F 88% 30.23 in 10.0 mi SW 3.5 mph - N/A   Overcast
2:55 AM 53.6 °F - 50.0 °F 88% 30.22 in 10.0 mi SW 5.8 mph - N/A   Overcast
3:15 AM 53.6 °F - 50.0 °F 88% 30.21 in 10.0 mi SSW 6.9 mph - N/A   Overcast
3:35 AM 55.4 °F - 50.0 °F 82% 30.21 in 10.0 mi SSW 9.2 mph - N/A   Overcast
3:55 AM 55.4 °F - 50.0 °F 82% 30.21 in 10.0 mi SSW 10.4 mph - N/A   Overcast
4:15 AM 53.6 °F - 51.8 °F 94% 30.20 in 10.0 mi SW 13.8 mph 19.6 mph N/A   Overcast
4:35 AM 53.6 °F - 51.8 °F 94% 30.20 in 10.0 mi SSW 10.4 mph - N/A   Overcast
4:55 AM 53.6 °F - 51.8 °F 94% 30.20 in 10.0 mi SW 6.9 mph - N/A   Overcast
5:15 AM 55.4 °F - 51.8 °F 88% 30.19 in 10.0 mi SSW 9.2 mph - N/A   Overcast
5:35 AM 55.4 °F - 51.8 °F 88% 30.19 in 10.0 mi SW 9.2 mph - N/A   Overcast
5:55 AM 55.4 °F - 51.8 °F 88% 30.19 in 5.0 mi SW 10.4 mph - N/A   Overcast
6:15 AM 55.4 °F - 51.8 °F 88% 30.19 in 7.0 mi SW 9.2 mph - N/A   Overcast
6:35 AM 55.4 °F - 51.8 °F 88% 30.20 in 10.0 mi SW 6.9 mph - N/A   Overcast
6:55 AM 55.4 °F - 51.8 °F 88% 30.21 in 10.0 mi SW 8.1 mph - N/A   Overcast
7:15 AM 55.4 °F - 51.8 °F 88% 30.21 in 7.0 mi SSW 3.5 mph - N/A   Overcast
7:35 AM 55.4 °F - 51.8 °F 88% 30.22 in 5.0 mi SW 5.8 mph - N/A   Overcast
7:55 AM 55.4 °F - 51.8 °F 88% 30.23 in 5.0 mi SW 4.6 mph - N/A   Overcast
8:15 AM 55.4 °F - 51.8 °F 88% 30.23 in 7.0 mi SSW 4.6 mph - N/A   Overcast
8:35 AM 55.4 °F - 53.6 °F 94% 30.23 in 7.0 mi South 5.8 mph - N/A   Overcast
8:55 AM 55.4 °F - 53.6 °F 94% 30.23 in 10.0 mi SSW 6.9 mph - N/A   Overcast
9:15 AM 55.4 °F - 53.6 °F 94% 30.23 in 10.0 mi SSW 5.8 mph - N/A   Overcast
9:35 AM 57.2 °F - 51.8 °F 82% 30.24 in 10.0 mi SSW 6.9 mph - N/A   Overcast
9:55 AM 57.2 °F - 51.8 °F 82% 30.23 in 10.0 mi WSW 5.8 mph - N/A   Overcast
10:15 AM 59.0 °F - 51.8 °F 77% 30.24 in 10.0 mi WSW 6.9 mph - N/A   Overcast
10:35 AM 59.0 °F - 51.8 °F 77% 30.24 in 10.0 mi SW 5.8 mph - N/A   Overcast
10:55 AM 59.0 °F - 50.0 °F 72% 30.24 in 10.0 mi WSW 8.1 mph - N/A   Overcast
11:15 AM 60.8 °F - 50.0 °F 68% 30.24 in 10.0 mi WSW 8.1 mph - N/A   Overcast
11:35 AM 60.8 °F - 50.0 °F 68% 30.23 in 10.0 mi West 5.8 mph - N/A   Mostly Cloudy
11:55 AM 62.6 °F - 50.0 °F 63% 30.23 in 10.0 mi Calm Calm - N/A   Scattered Clouds
12:15 PM 62.6 °F - 50.0 °F 63% 30.23 in 10.0 mi North 4.6 mph - N/A   Mostly Cloudy
12:35 PM 64.4 °F - 50.0 °F 59% 30.23 in 10.0 mi West 4.6 mph - N/A   Scattered Clouds
12:55 PM 64.4 °F - 50.0 °F 59% 30.22 in 10.0 mi North 5.8 mph - N/A   Scattered Clouds
1:15 PM 64.4 °F - 50.0 °F 59% 30.21 in 10.0 mi North 4.6 mph - N/A   Scattered Clouds
1:35 PM 66.2 °F - 50.0 °F 56% 30.21 in 10.0 mi North 5.8 mph - N/A   Clear
1:55 PM 66.2 °F - 50.0 °F 56% 30.21 in 10.0 mi North 5.8 mph - N/A   Clear
2:15 PM 66.2 °F - 48.2 °F 52% 30.22 in 10.0 mi North 11.5 mph - N/A   Clear
2:35 PM 64.4 °F - 50.0 °F 59% 30.23 in 10.0 mi North 18.4 mph 24.2 mph N/A   Mostly Cloudy
2:55 PM 60.8 °F - 50.0 °F 68% 30.23 in 10.0 mi North 16.1 mph - N/A   Scattered Clouds
3:15 PM 59.0 °F - 50.0 °F 72% 30.25 in 10.0 mi North 13.8 mph - N/A   Mostly Cloudy
3:35 PM 57.2 °F - 48.2 °F 72% 30.26 in 10.0 mi North 17.3 mph 21.9 mph N/A   Overcast
3:55 PM 55.4 °F - 48.2 °F 77% 30.27 in 10.0 mi North 16.1 mph 20.7 mph N/A   Overcast
4:15 PM 53.6 °F - 48.2 °F 82% 30.28 in 10.0 mi North 20.7 mph 25.3 mph N/A   Overcast
4:35 PM 53.6 °F - 48.2 °F 82% 30.30 in 10.0 mi North 15.0 mph - N/A   Overcast
4:55 PM 51.8 °F - 42.8 °F 71% 30.32 in 10.0 mi North 21.9 mph 31.1 mph N/A   Overcast
5:15 PM 44.6 °F 36.4 °F 41.0 °F 87% 30.34 in 10.0 mi North 20.7 mph 28.8 mph N/A   Overcast
5:35 PM 44.6 °F 36.1 °F 39.2 °F 81% 30.36 in 10.0 mi North 21.9 mph 28.8 mph N/A   Overcast
5:55 PM 42.8 °F 33.8 °F 37.4 °F 81% 30.38 in 10.0 mi North 21.9 mph 28.8 mph N/A   Overcast
6:15 PM 41.0 °F 31.6 °F 37.4 °F 87% 30.40 in 7.0 mi North 20.7 mph 26.5 mph N/A Rain Rain
6:35 PM 39.2 °F 30.5 °F 37.4 °F 93% 30.42 in 5.0 mi North 16.1 mph 24.2 mph N/A   Light Drizzle
6:55 PM 37.4 °F 27.5 °F 35.6 °F 93% 30.43 in 5.0 mi North 18.4 mph 24.2 mph N/A   Light Drizzle
7:15 PM 37.4 °F 27.2 °F 35.6 °F 93% 30.45 in 5.0 mi North 19.6 mph 29.9 mph N/A   Light Drizzle
7:35 PM 37.4 °F 28.2 °F 35.6 °F 93% 30.47 in 4.0 mi North 16.1 mph 23.0 mph N/A   Drizzle
7:55 PM 37.4 °F 27.8 °F 33.8 °F 87% 30.48 in 4.0 mi North 17.3 mph 23.0 mph N/A Rain Light Rain
8:15 PM 35.6 °F 26.2 °F 33.8 °F 93% 30.49 in 4.0 mi North 15.0 mph - N/A   Light Drizzle
8:35 PM 35.6 °F 26.2 °F 33.8 °F 93% 30.50 in 7.0 mi NNE 15.0 mph 20.7 mph N/A   Overcast
8:55 PM 35.6 °F 25.5 °F 33.8 °F 93% 30.51 in 7.0 mi North 17.3 mph 25.3 mph N/A   Overcast
9:15 PM 35.6 °F 25.2 °F 33.8 °F 93% 30.52 in 10.0 mi North 18.4 mph 25.3 mph N/A   Overcast
9:35 PM 35.6 °F 25.9 °F 33.8 °F 93% 30.53 in 10.0 mi North 16.1 mph 21.9 mph N/A   Overcast
9:55 PM 35.6 °F 24.5 °F 32.0 °F 87% 30.55 in 10.0 mi North 20.7 mph 34.5 mph N/A   Overcast
10:15 PM 35.6 °F 24.8 °F 32.0 °F 87% 30.56 in 10.0 mi North 19.6 mph 24.2 mph N/A   Overcast
10:35 PM 35.6 °F 25.9 °F 32.0 °F 87% 30.57 in 10.0 mi North 16.1 mph 24.2 mph N/A   Overcast
10:55 PM 35.6 °F 25.9 °F 32.0 °F 87% 30.58 in 10.0 mi North 16.1 mph 21.9 mph N/A   Overcast
11:15 PM 33.8 °F 23.9 °F 32.0 °F 93% 30.59 in 10.0 mi North 15.0 mph 25.3 mph N/A   Overcast
11:35 PM 33.8 °F 21.6 °F 30.2 °F 87% 30.61 in 10.0 mi North 23.0 mph 28.8 mph N/A   Overcast
11:55 PM 33.8 °F 21.9 °F 28.4 °F 81% 30.61 in 10.0 mi North 21.9 mph 28.8 mph N/A   Overcast